Weather in Kozova

Ukraine / Ternopil District     49°25′53″N   25°09′33″E
temp.,
°C
wind,
m/s
gust,
m/s
humid.,
%
clouds,
%
prec.,
mm/h
press.,
hPa
HPBL,
m
28 september, tue
tue2800:00+8e511745 0.0 1023289
03:00+7ese410800 0.0 1023248
06:00+5e410850 0.0 1023223
09:00+7ese59750 0.0 1024326
12:00+13ese67560 0.0 1024960
15:00+15ese56482 0.0 10231384
18:00+14e46554 0.0 1024274
21:00+9e511715 0.0 1026279
29 september, wed
wed2900:00+7ese410745 0.0 1027202
03:00+7ese410705 0.0 1027180
06:00+7ese410734 0.0 1027177
09:00+9ese511705 0.0 1027371
12:00+14se79473 0.0 10271496
15:00+16se79422 0.0 10261630
18:00+14se510500 0.0 1026508
21:00+10ese513610 0.0 1027330
30 september, thu
thu3000:00+9se614630 0.0 1028396
03:00+8se715690 0.0 1028440
06:00+7se614743 0.0 1028368
09:00+9se613693 0.0 1029413
12:00+14se79505 0.0 1028852
15:00+16se67445 0.0 10281274
18:00+14se475267 0.0 1027246
21:00+10se3862100 0.0 1029125
1 october, fri
fri100:00+9se41062100 0.0 1030185
03:00+7ese3858100 0.0 1030165
06:00+6se3859100 0.0 1031149
09:00+8se4956100 0.0 1031258
12:00+13se6841100 0.0 1031721
15:00+15se5636100 0.0 10291160
18:00+13se4844100 0.0 1029212
21:00+9se494855 0.0 1030149
2 october, sat
sat200:00+7se411505 0.0 1029198
03:00+7se513505 0.0 1028232
06:00+6se412556 0.0 1027227
09:00+8se513545 0.0 1027344
12:00+14sse810405 0.0 1026816
15:00+16sse78359 0.0 10241122
18:00+14se611446 0.0 1024499
21:00+9se514495 0.0 1025330